User: anonymous   Login
Location: Vancouver
(49.2500°N, 123.1330°W)
Time: 16:33:16
(UTC-08:00)
Language:

SO-67 - Orbit

View from above orbital plane
View from above orbital plane
View from above satellite
View from above satellite

Ground track
Ground track

The orbit data is extracted from the following two-line orbital elements,

1 35870U 09049F   15059.82826594  .00012768  00000-0  33282-3 0  9994
2 35870 097.1450 078.6567 0001050 120.8544 004.1239 15.38975491303434
Epoch (UTC): 28 February 2015 19:52:42
Eccentricity: 0.0001050
inclination: 97.1450°
perigee height: 448 km
apogee height: 450 km
right ascension of ascending node: 78.6567°
argument of perigee: 120.8544°
revolutions per day: 15.38975491
mean anomaly at epoch: 4.1239°
orbit number at epoch: 30343

The dashed part of the orbit path shows where the satellite is in the earth's shadow,  

DLR